Other Public Products
Issued by NWS Grand Forks, ND

Home | Current Version | Previous Version | Text Only | Print | Product List | Glossary Off
Versions: 1 2 3 4 5 6 7 8 9 10 11 12 13 14 15 16 17 18 19 20 21 22 23 24 25 26 27 28 29 30 31 32 33 34 35 36 37 38 39 40 41 42 43 44 45 46 47 48 49 50

000
FPUS83 KFGF 231510
OPUFGF
PRAIRIE TO PINES WEATHER ROUNDUP
NATIONAL WEATHER SERVICE EASTERN NORTH DAKOTA/GRAND FORKS ND
1000 AM CDT SAT MAY 23 2015

 **SATELLITE DATA USED TO AUGMENT SKY COVER AT AUTOMATED STATIONS**
 *****  WEATHER ACROSS EASTERN NORTH DAKOTA  *****

CITY           SKY/WX    TMP DP  RH WIND       PRES   REMARKS
GRAND FORKS    MOSUNNY   65  45  48 S5        30.14S
GRAND FORKS AF SUNNY     68  46  45 SW6       30.14S
GRAND CITY NWS   N/A     63 N/A N/A S5          N/A
BUXTON         NOT AVBL
DEVILS LAKE    SUNNY     64  46  52 SW9       30.14F
FARGO          SUNNY     65  45  48 SW10      30.19S
WAHPETON ARPT  SUNNY     63  41  45 CALM      30.21F
$$

 *****  WEATHER ACROSS CENTRAL AND WESTERN NORTH DAKOTA  *****

CITY           SKY/WX    TMP DP  RH WIND       PRES   REMARKS
JAMESTOWN      SUNNY     62  43  49 S7        30.17S
BISMARCK       SUNNY     57  44  62 S8        30.17S
MINOT          SUNNY     65  42  43 S8        30.13S
MINOT AFB      MOSUNNY   68  41  36 CALM      30.12S
GARRISON         N/A     59  43  55 S7        30.15S
WILLISTON      SUNNY     63  42  46 VRB6      30.12F
DICKINSON      MOSUNNY   56  43  61 SE15      30.11R
HETTINGER      CLOUDY    51  44  77 E13       30.11S
$$

 *****  OTHER OBSERVATIONS NORTHEAST NORTH DAKOTA  *****

CITY           SKY/WX    TMP DP  RH WIND       PRES   REMARKS
WALHALLA         N/A     73  37  27 S3        30.12S
LANGDON        FAIR      72  43  35 CALM      30.14F
CAVALIER       FAIR      72  45  37 S5        30.12S
GRAFTON        FAIR      66  46  48 S9        30.14S
CANDO          FAIR      64  45  48 S3        30.15S
FORT TOTTEN    NOT AVBL
ROLLA          FAIR      72  36  26 N13       30.14S
RUGBY          NOT AVBL
 ***** THE ABOVE OBSERVATIONS ARE NON NWS ARE NOT QUALITY
        CONTROLLED AND MAY MIS-REPORT RAIN FOR SNOW...
$$

 *****  OTHER OBSERVATIONS SOUTHEAST NORTH DAKOTA *****

CITY           SKY/WX    TMP DP  RH WIND       PRES   REMARKS
COOPERSTOWN    NOT AVBL
VALLEY CITY    FAIR      64  43  45 SW15      30.18S
OAKES            N/A     59  46  63 S8        30.19F
GWINNER        NOT AVBL
SHEYENNE NWR     N/A     66  45  45 SW7       29.95S
BUFFALO        NOT AVBL
WYNDMERE         N/A     66  43  42 S6          N/A
 ***** THE ABOVE OBSERVATIONS ARE NON NWS ARE NOT QUALITY
       CONTROLLED AND MAY MIS-REPORT RAIN FOR SNOW...
$$

  *****  WEATHER ACROSS NORTHERN MINNESOTA  *****

CITY           SKY/WX    TMP DP  RH WIND       PRES   REMARKS
FLAG ISLAND    SUNNY     57  46  67 CALM      30.13F
WARROAD        SUNNY     72  43  35 SW12      30.15S
ROSEAU         SUNNY     70  39  32 W5        30.15S
HALLOCK        SUNNY     68  45  42 S5        30.13S
THF RVR FALLS  SUNNY     64  46  52 S10       30.17S
HALSTAD        NOT AVBL
FOSSTON        SUNNY     63  45  51 S10       30.19F
BAUDETTE       SUNNY     72  38  29 W7        30.15F
WASKISH        SUNNY     66  48  52 CALM      30.18S
CROOKSTON      SUNNY     63  46  55 SW10      30.16F
$$
  *****  WEATHER ACROSS CENTRAL AND WEST MINNESOTA  *****

CITY           SKY/WX    TMP DP  RH WIND       PRES   REMARKS
BEMIDJI        SUNNY     65  44  46 S6        30.19S
PARK RAPIDS    SUNNY     67  43  41 VRB6      30.21S
WADENA         SUNNY     63  43  48 W9        30.23R
DETROIT LAKES  SUNNY     63  43  48 W9        30.23S
MOORHEAD       SUNNY     63  48  59 SW7       30.21S
FERGUS FALLS   SUNNY     63  43  48 CALM      30.23S
ELBOW LAKE     FAIR      62  43  49 CALM      30.22F
MORRIS MN      PTSUNNY   61  45  55 SE7       30.22F
STAPLES        SUNNY     64  39  39 W8        30.24R
WHEATON        MOSUNNY   59  45  58 E8        30.23F
$$
  *****  WEATHER ELSEWHERE ACROSS MINNESOTA  *****

CITY           SKY/WX    TMP DP  RH WIND       PRES   REMARKS
DULUTH         SUNNY     71  37  28 W13       30.22S
INTRNTL FALLS  SUNNY     70  41  34 VRB7      30.17S
ELY            SUNNY     70  36  28 SW9G16    30.19S
CLOQUET        SUNNY     72  32  23 SW10      30.22S
BRAINERD       SUNNY     65  43  44 NW8       30.23F
HIBBING        SUNNY     71  35  26 SW10G17   30.20F
ALEXANDRIA     MOSUNNY   64  42  44 CALM      30.25S
SAINT CLOUD    CLOUDY    62  47  57 W5        30.24F
MINNEAPOLIS    CLOUDY    64  45  49 SW6       30.26S
$$

  *****  WEATHER ACROSS SOUTH DAKOTA  *****

CITY           SKY/WX    TMP DP  RH WIND       PRES   REMARKS
SIOUX FALLS    CLOUDY    58  51  78 E9        30.20R
BROOKINGS      CLOUDY    57  48  72 S8        30.21R
WATERTOWN      CLOUDY    61  45  55 SE16      30.19F
HURON          CLOUDY    56  48  74 SE9       30.17S
SISSETON         N/A     61  44  53 SE7       30.20F
ABERDEEN       PTSUNNY   63  44  50 E15       30.17F
MITCHELL       CLOUDY    59  51  75 SE12      30.17R
PIERRE         CLOUDY    52  49  89 SE15      30.12R
MOBRIDGE       CLOUDY    57  47  69 SE10      30.12S
RAPID CITY     CLOUDY    50  46  86 SE14      30.07R
$$

  *****  SOME WEATHER IN NEARBY STATES *****

CITY           SKY/WX    TMP DP  RH WIND       PRES   REMARKS
GLASGOW MT     PTSUNNY   60  40  47 SE18      30.07S
GREAT FALLS MT RAIN      49  48  97 CALM      30.08R FOG
CHEYENNE WY    CLOUDY    47  44  90 S8        30.03F
SCOTTSBLUFF NE CLOUDY    50  50 100 E8        30.03S
OMAHA NE       CLOUDY    62  53  72 S13       30.20S
DES MOINES IA  PTSUNNY   68  52  56 S9        30.25F
DAVENPORT IA   SUNNY     71  53  52 S12       30.30F
CHICAGO IL     MOSUNNY   68  37  32 SE9       30.34S
EAU CLAIRE WI  MOSUNNY   66  43  43 S8        30.25F
LA CROSSE WI   MOSUNNY   65  45  48 VRB7      30.27F
$$

  *****  SOME NATIONAL WEATHER *****

CITY           SKY/WX    TMP DP  RH WIND       PRES   REMARKS
LA GUARDIA NY  MOSUNNY   55  27  34 NW13      30.42S
RALEIGH NC     MOSUNNY   69  46  43 E6        30.46R
ATLANTA GA     MOSUNNY   73  55  53 SE9       30.39S
NEW ORLEANS LA PTSUNNY   83  66  56 E9        30.21S
OKLAHOMA CITY  DRZL/FOG  63  62  97 SE16      30.08F VSB 1/2
ALBUQUERQUE NM MOSUNNY   60  29  30 N7        30.04S
SALT LAKE CITY CLOUDY    52  46  80 CALM      29.93R
LOS ANGELES CA PTSUNNY   60  53  77 E5        30.09R
BOISE ID       PTSUNNY   58  51  78 NW5       29.91R
SEATTLE WA     CLOUDY    53  50  89 S5        30.16R
$$

*** WEATHER ACROSS MANITOBA...SASKATCHEWAN AND ONTARIO ***
                ***ONTARIO***

CITY           SKY/WX    TMP DP  RH WIND       PRES   REMARKS
GERALDTON      MOSUNNY   68  39  34 W8        30.00R
THUNDER BAY    PTSUNNY   75  37  25 W16G26    30.08F
SIOUX LOOKOUT  MOSUNNY   72  41  33 W10G21    30.05F
TORONTO        SUNNY     57  25  28 SW12G18   30.41F
BIG TROUT LK   PTSUNNY   39  32  75 NW9       30.07R
PICKLE LAKE    PTSUNNY   63  39  42 NW5       30.01R
DRYDEN         MOSUNNY   68  39  34 W15G21    30.09S
KENORA         PTSUNNY   70  32  24 MISG      30.12F
$$
                *** MANITOBA***

CITY           SKY/WX    TMP DP  RH WIND       PRES   REMARKS
BRANDON        MOSUNNY   72  43  35 NW12      30.11F
DAUPHIN        SUNNY     75  39  27 W16G22    30.06S
ISLAND LAKE    PTSUNNY   43  36  75 N6        30.13R
PILOT MOUND      N/A     68  41  37 N1          N/A
THE PAS        MOSUNNY   54  41  62 N8        30.10R
THOMPSON       PTSUNNY   41  27  56 NE9       30.22R
WINNIPEG       MOSUNNY   72  43  35 SW9       30.10F
LYNN LAKE      SUNNY     45  30  57 NE8       30.24R
CHURCHILL      PTSUNNY   32  27  80 NW13      30.20F WCI  22
$$
                ***SASKATCHEWAN***

CITY           SKY/WX    TMP DP  RH WIND       PRES   REMARKS
ESTEVAN        MOSUNNY   66  41  39 VRB3      30.13S
KINDERSLEY     MOSUNNY   68  34  28 N3        30.12R
LLOYDMINSTER   PTSUNNY   70  30  23 NW3       30.10S
PRINCE ALBERT  MOSUNNY   72  37  28 VRB5      30.06F
REGINA         MOSUNNY   66  43  42 S3        30.13S
YORKTON        SUNNY     73  39  29 W10       30.09S



USA.gov is the U.S. government's official web portal to all federal, state and local government web resources and services.